Torna al catalogo

STARLINK-37647

AttivoComunicazioniVLEO
NORAD 69207·PAYLOAD·🇺🇸 United States

Lanciato May 25, 2026 da Cape Canaveral Space Force Station

Loading…

Prossimi Passaggi (prossime 24 ore)

TLE

AggiornatoSource: CelesTrak SupGP

Epoca: Sep 14, 2026, 23:27 UTC

1 69207C 26114AB  26257.97756944 -.00015366  00000+0 -45403-3 0  2579
2 69207  53.1573 139.3387 0001247  74.8849 191.3863 15.34395252    19

Traccia STARLINK-37647 in tempo reale con AllMySat

Download on the App Store